Overview Statistics Trail Chart Weather Telemetry Raw packets
 

This is the latest recevied weather packets stored in our database for station/object KQ7A. If no packets are shown the sender has not sent any weather packets the latest 10 day(s).

<< 26 27 28 29 30 31 32 >>
Time Temp. Humidity Pressure Rain* Wind** Luminosity Snow
1788500708 15.56° C 45% 1012.8 hPa 0 mm - 0 W/m² -
1788500404 16.11° C 45% 1012.9 hPa 0 mm - 0 W/m² -
1788500103 15.56° C 46% 1012.8 hPa 0 mm - 0 W/m² -
1788499799 15.56° C 46% 1013.1 hPa 0 mm - 0 W/m² -
1788499495 15.56° C 46% 1013.5 hPa 0 mm - 0 W/m² -
1788499191 15.56° C 47% 1013.3 hPa 0 mm - 0 W/m² -
1788498888 16.11° C 44% 1013.1 hPa 0 mm - 0 W/m² -
1788498586 15.56° C 46% 1013.6 hPa 0 mm - 0 W/m² -
1788498305 16.11° C 45% 1013.5 hPa 0 mm - 0 W/m² -
1788497978 16.11° C 45% 1013.3 hPa 0 mm - 0 W/m² -
1788497672 16.11° C 44% 1013.6 hPa 0 mm - 0 W/m² -
1788497367 16.11° C 45% 1013.3 hPa 0 mm - 0 W/m² -
1788497063 16.11° C 44% 1013.6 hPa 0 mm - 0 W/m² -
1788496759 16.11° C 45% 1013.5 hPa 0 mm - 0 W/m² -
1788496456 16.11° C 44% 1013.2 hPa 0 mm - 0 W/m² -
1788496151 15.56° C 45% 1012.8 hPa 0 mm - 0 W/m² -
1788495847 16.11° C 44% 1013.2 hPa 0 mm - 0 W/m² -
1788495542 16.11° C 46% 1013.2 hPa 0 mm - 0 W/m² -
1788495238 16.11° C 45% 1013.3 hPa 0 mm - 0 W/m² -
1788494934 16.11° C 45% 1013.6 hPa 0 mm - 0 W/m² -
1788494628 16.11° C 47% 1013.1 hPa 0 mm - 0 W/m² -
1788494325 16.11° C 46% 1013.2 hPa 0 mm - 0 W/m² -
1788494021 16.11° C 46% 1013.2 hPa 0 mm - 0 W/m² -
1788493720 16.11° C 44% 1012.9 hPa 0 mm - 0 W/m² -
1788493415 16.11° C 44% 1013 hPa 0 mm - 0 W/m² -

* Rain latest hour (hover to see other rain measurements)
** Current wind speed in m/s (hover to see current wind gust speed)